Year,Month,Day,Hour,Minute,Value (Times are PST for temperature in C)
2010,05,08,00,00,4.50
2010,05,08,00,01,4.50
2010,05,08,00,02,4.50
2010,05,08,00,03,4.40
2010,05,08,00,04,4.40
2010,05,08,00,05,4.40
2010,05,08,00,06,4.40
2010,05,08,00,07,4.40
2010,05,08,00,08,4.40
2010,05,08,00,09,4.40
2010,05,08,00,10,4.40
2010,05,08,00,11,4.40
2010,05,08,00,12,4.30
2010,05,08,00,13,4.30
2010,05,08,00,14,4.30
2010,05,08,00,15,4.30
2010,05,08,00,16,4.30
2010,05,08,00,17,4.30
2010,05,08,00,18,4.30
2010,05,08,00,19,4.20
2010,05,08,00,20,4.20
2010,05,08,00,21,4.20
2010,05,08,00,22,4.20
2010,05,08,00,23,4.20
2010,05,08,00,24,4.20
2010,05,08,00,25,4.10
2010,05,08,00,26,4.10
2010,05,08,00,27,4.10
2010,05,08,00,28,4.10
2010,05,08,00,29,4.10
2010,05,08,00,30,4.10
2010,05,08,00,31,4.00
2010,05,08,00,32,4.00
2010,05,08,00,33,4.00
2010,05,08,00,34,4.00
2010,05,08,00,35,4.00
2010,05,08,00,36,4.00
2010,05,08,00,37,4.00
2010,05,08,00,38,4.00
2010,05,08,00,39,4.00
2010,05,08,00,40,4.00
2010,05,08,00,41,4.00
2010,05,08,00,42,4.00
2010,05,08,00,43,4.00
2010,05,08,00,44,3.90
2010,05,08,00,45,3.90
2010,05,08,00,46,3.90
2010,05,08,00,47,3.90
2010,05,08,00,48,3.90
2010,05,08,00,49,3.90
2010,05,08,00,50,3.80
2010,05,08,00,51,3.80
2010,05,08,00,52,3.80
2010,05,08,00,53,3.80
2010,05,08,00,54,3.80
2010,05,08,00,55,3.70
2010,05,08,00,56,3.70
2010,05,08,00,57,3.70
2010,05,08,00,58,3.70
2010,05,08,00,59,3.70
2010,05,08,01,00,3.70
2010,05,08,01,01,3.60
2010,05,08,01,02,3.60
2010,05,08,01,03,3.60
2010,05,08,01,04,3.60
2010,05,08,01,05,3.60
2010,05,08,01,06,3.50
2010,05,08,01,07,3.50
2010,05,08,01,08,3.50
2010,05,08,01,09,3.40
2010,05,08,01,10,3.40
2010,05,08,01,11,3.40
2010,05,08,01,12,3.40
2010,05,08,01,13,3.40
2010,05,08,01,14,3.40
2010,05,08,01,15,3.40
2010,05,08,01,16,3.40
2010,05,08,01,17,3.40
2010,05,08,01,18,3.40
2010,05,08,01,19,3.50
2010,05,08,01,20,3.50
2010,05,08,01,21,3.60
2010,05,08,01,22,3.60
2010,05,08,01,23,3.60
2010,05,08,01,24,3.60
2010,05,08,01,25,3.60
2010,05,08,01,26,3.60
2010,05,08,01,27,3.60
2010,05,08,01,28,3.60
2010,05,08,01,29,3.60
2010,05,08,01,30,3.60
2010,05,08,01,31,3.60
2010,05,08,01,32,3.60
2010,05,08,01,33,3.60
2010,05,08,01,34,3.60
2010,05,08,01,35,3.50
2010,05,08,01,36,3.50
2010,05,08,01,37,3.50
2010,05,08,01,38,3.40
2010,05,08,01,39,3.40
2010,05,08,01,40,3.40
2010,05,08,01,41,3.30
2010,05,08,01,42,3.30
2010,05,08,01,43,3.30
2010,05,08,01,44,3.30
2010,05,08,01,45,3.30
2010,05,08,01,46,3.20
2010,05,08,01,47,3.20
2010,05,08,01,48,3.20
2010,05,08,01,49,3.20
2010,05,08,01,50,3.20
2010,05,08,01,51,3.20
2010,05,08,01,52,3.20
2010,05,08,01,53,3.20
2010,05,08,01,54,3.10
2010,05,08,01,55,3.10
2010,05,08,01,56,3.10
2010,05,08,01,57,3.10
2010,05,08,01,58,3.10
2010,05,08,01,59,3.10
2010,05,08,02,00,3.10
2010,05,08,02,01,3.10
2010,05,08,02,02,3.10
2010,05,08,02,03,3.00
2010,05,08,02,04,3.00
2010,05,08,02,05,3.00
2010,05,08,02,06,3.00
2010,05,08,02,07,3.00
2010,05,08,02,08,3.00
2010,05,08,02,09,3.00
2010,05,08,02,10,3.00
2010,05,08,02,11,2.90
2010,05,08,02,12,2.90
2010,05,08,02,13,2.90
2010,05,08,02,14,2.90
2010,05,08,02,15,2.90
2010,05,08,02,16,2.90
2010,05,08,02,17,2.90
2010,05,08,02,18,2.90
2010,05,08,02,19,2.90
2010,05,08,02,20,2.80
2010,05,08,02,21,2.80
2010,05,08,02,22,2.80
2010,05,08,02,23,2.80
2010,05,08,02,24,2.80
2010,05,08,02,25,2.80
2010,05,08,02,26,2.80
2010,05,08,02,27,2.80
2010,05,08,02,28,2.80
2010,05,08,02,29,2.70
2010,05,08,02,30,2.70
2010,05,08,02,31,2.70
2010,05,08,02,32,2.70
2010,05,08,02,33,2.70
2010,05,08,02,34,2.70
2010,05,08,02,35,2.70
2010,05,08,02,36,2.70
2010,05,08,02,37,2.70
2010,05,08,02,38,2.70
2010,05,08,02,39,2.70
2010,05,08,02,40,2.70
2010,05,08,02,41,2.80
2010,05,08,02,42,2.80
2010,05,08,02,43,2.80
2010,05,08,02,44,2.80
2010,05,08,02,45,2.80
2010,05,08,02,46,2.80
2010,05,08,02,47,2.80
2010,05,08,02,48,2.80
2010,05,08,02,49,2.80
2010,05,08,02,50,2.80
2010,05,08,02,51,2.70
2010,05,08,02,52,2.70
2010,05,08,02,53,2.70
2010,05,08,02,54,2.70
2010,05,08,02,55,2.70
2010,05,08,02,56,2.70
2010,05,08,02,57,2.70
2010,05,08,02,58,2.70
2010,05,08,02,59,2.70
2010,05,08,03,00,2.60
2010,05,08,03,01,2.60
2010,05,08,03,02,2.60
2010,05,08,03,03,2.60
2010,05,08,03,04,2.60
2010,05,08,03,05,2.60
2010,05,08,03,06,2.60
2010,05,08,03,07,2.50
2010,05,08,03,08,2.50
2010,05,08,03,09,2.50
2010,05,08,03,10,2.50
2010,05,08,03,11,2.50
2010,05,08,03,12,2.50
2010,05,08,03,13,2.40
2010,05,08,03,14,2.40
2010,05,08,03,15,2.40
2010,05,08,03,16,2.40
2010,05,08,03,17,2.40
2010,05,08,03,18,2.40
2010,05,08,03,19,2.40
2010,05,08,03,20,2.40
2010,05,08,03,21,2.40
2010,05,08,03,22,2.40
2010,05,08,03,23,2.40
2010,05,08,03,24,2.40
2010,05,08,03,25,2.40
2010,05,08,03,26,2.40
2010,05,08,03,27,2.40
2010,05,08,03,28,2.40
2010,05,08,03,29,2.40
2010,05,08,03,30,2.40
2010,05,08,03,31,2.40
2010,05,08,03,32,2.40
2010,05,08,03,33,2.40
2010,05,08,03,34,2.50
2010,05,08,03,35,2.50
2010,05,08,03,36,2.50
2010,05,08,03,37,2.60
2010,05,08,03,38,2.60
2010,05,08,03,39,2.60
2010,05,08,03,40,2.60
2010,05,08,03,41,2.60
2010,05,08,03,42,2.60
2010,05,08,03,43,2.60
2010,05,08,03,44,2.60
2010,05,08,03,45,2.60
2010,05,08,03,46,2.60
2010,05,08,03,47,2.60
2010,05,08,03,48,2.60
2010,05,08,03,49,2.60
2010,05,08,03,50,2.60
2010,05,08,03,51,2.60
2010,05,08,03,52,2.60
2010,05,08,03,53,2.70
2010,05,08,03,54,2.70
2010,05,08,03,55,2.70
2010,05,08,03,56,2.80
2010,05,08,03,57,2.80
2010,05,08,03,58,2.80
2010,05,08,03,59,2.80
2010,05,08,04,00,2.80
2010,05,08,04,01,2.80
2010,05,08,04,02,2.80
2010,05,08,04,03,2.70
2010,05,08,04,04,2.70
2010,05,08,04,05,2.70
2010,05,08,04,06,2.70
2010,05,08,04,07,2.70
2010,05,08,04,08,2.60
2010,05,08,04,09,2.60
2010,05,08,04,10,2.60
2010,05,08,04,11,2.60
2010,05,08,04,12,2.60
2010,05,08,04,13,2.50
2010,05,08,04,14,2.50
2010,05,08,04,15,2.50
2010,05,08,04,16,2.40
2010,05,08,04,17,2.40
2010,05,08,04,18,2.40
2010,05,08,04,19,2.40
2010,05,08,04,20,2.40
2010,05,08,04,21,2.40
2010,05,08,04,22,2.40
2010,05,08,04,23,2.40
2010,05,08,04,24,2.40
2010,05,08,04,25,2.40
2010,05,08,04,26,2.40
2010,05,08,04,27,2.40
2010,05,08,04,28,2.40
2010,05,08,04,29,2.40
2010,05,08,04,30,2.40
2010,05,08,04,31,2.40
2010,05,08,04,32,2.40
2010,05,08,04,33,2.30
2010,05,08,04,34,2.30
2010,05,08,04,35,2.30
2010,05,08,04,36,2.30
2010,05,08,04,37,2.30
2010,05,08,04,38,2.30
2010,05,08,04,39,2.30
2010,05,08,04,40,2.30
2010,05,08,04,41,2.30
2010,05,08,04,42,2.30
2010,05,08,04,43,2.30
2010,05,08,04,44,2.30
2010,05,08,04,45,2.30
2010,05,08,04,46,2.30
2010,05,08,04,47,2.30
2010,05,08,04,48,2.30
2010,05,08,04,49,2.30
2010,05,08,04,50,2.30
2010,05,08,04,51,2.30
2010,05,08,04,52,2.40
2010,05,08,04,53,2.40
2010,05,08,04,54,2.50
2010,05,08,04,55,2.60
2010,05,08,04,56,2.60
2010,05,08,04,57,2.60
2010,05,08,04,58,2.60
2010,05,08,04,59,2.70
2010,05,08,05,00,2.70
2010,05,08,05,01,2.70
2010,05,08,05,02,2.70
2010,05,08,05,03,2.70
2010,05,08,05,04,2.70
2010,05,08,05,05,2.70
2010,05,08,05,06,2.70
2010,05,08,05,07,2.70
2010,05,08,05,08,2.70
2010,05,08,05,09,2.70
2010,05,08,05,10,2.70
2010,05,08,05,11,2.70
2010,05,08,05,12,2.70
2010,05,08,05,13,2.70
2010,05,08,05,14,2.80
2010,05,08,05,15,2.80
2010,05,08,05,16,2.80
2010,05,08,05,17,2.80
2010,05,08,05,18,2.80
2010,05,08,05,19,2.80
2010,05,08,05,20,2.90
2010,05,08,05,21,2.90
2010,05,08,05,22,3.00
2010,05,08,05,23,3.00
2010,05,08,05,24,3.00
2010,05,08,05,25,3.10
2010,05,08,05,26,3.10
2010,05,08,05,27,3.10
2010,05,08,05,28,3.10
2010,05,08,05,29,3.10
2010,05,08,05,30,3.20
2010,05,08,05,31,3.20
2010,05,08,05,32,3.20
2010,05,08,05,33,3.20
2010,05,08,05,34,3.20
2010,05,08,05,35,3.20
2010,05,08,05,36,3.10
2010,05,08,05,37,3.10
2010,05,08,05,38,3.10
2010,05,08,05,39,3.10
2010,05,08,05,40,3.10
2010,05,08,05,41,3.10
2010,05,08,05,42,3.10
2010,05,08,05,43,3.10
2010,05,08,05,44,3.10
2010,05,08,05,45,3.10
2010,05,08,05,46,3.10
2010,05,08,05,47,3.10
2010,05,08,05,48,3.10
2010,05,08,05,49,3.10
2010,05,08,05,50,3.10
2010,05,08,05,51,3.00
2010,05,08,05,52,3.00
2010,05,08,05,53,3.00
2010,05,08,05,54,3.10
2010,05,08,05,55,3.10
2010,05,08,05,56,3.10
2010,05,08,05,57,3.10
2010,05,08,05,58,3.10
2010,05,08,05,59,3.10
2010,05,08,06,00,3.20
2010,05,08,06,01,3.20
2010,05,08,06,02,3.20
2010,05,08,06,03,3.20
2010,05,08,06,04,3.20
2010,05,08,06,05,3.30
2010,05,08,06,06,3.30
2010,05,08,06,07,3.30
2010,05,08,06,08,3.30
2010,05,08,06,09,3.40
2010,05,08,06,10,3.40
2010,05,08,06,11,3.50
2010,05,08,06,12,3.50
2010,05,08,06,13,3.50
2010,05,08,06,14,3.50
2010,05,08,06,15,3.50
2010,05,08,06,16,3.60
2010,05,08,06,17,3.60
2010,05,08,06,18,3.60
2010,05,08,06,19,3.60
2010,05,08,06,20,3.60
2010,05,08,06,21,3.60
2010,05,08,06,22,3.60
2010,05,08,06,23,3.60
2010,05,08,06,24,3.60
2010,05,08,06,25,3.70
2010,05,08,06,26,3.70
2010,05,08,06,27,3.70
2010,05,08,06,28,3.80
2010,05,08,06,29,3.80
2010,05,08,06,30,3.80
2010,05,08,06,31,3.90
2010,05,08,06,32,3.90
2010,05,08,06,33,3.90
2010,05,08,06,34,4.00
2010,05,08,06,35,4.10
2010,05,08,06,36,4.10
2010,05,08,06,37,4.20
2010,05,08,06,38,4.20
2010,05,08,06,39,4.30
2010,05,08,06,40,4.30
2010,05,08,06,41,4.30
2010,05,08,06,42,4.40
2010,05,08,06,43,4.50
2010,05,08,06,44,4.50
2010,05,08,06,45,4.60
2010,05,08,06,46,4.60
2010,05,08,06,47,4.70
2010,05,08,06,48,4.80
2010,05,08,06,49,4.80
2010,05,08,06,50,4.80
2010,05,08,06,51,4.90
2010,05,08,06,52,4.90
2010,05,08,06,53,5.00
2010,05,08,06,54,5.10
2010,05,08,06,55,5.10
2010,05,08,06,56,5.20
2010,05,08,06,57,5.30
2010,05,08,06,58,5.30
2010,05,08,06,59,5.40
2010,05,08,07,00,5.40
2010,05,08,07,01,5.50
2010,05,08,07,02,5.50
2010,05,08,07,03,5.60
2010,05,08,07,04,5.70
2010,05,08,07,05,5.70
2010,05,08,07,06,5.80
2010,05,08,07,07,5.80
2010,05,08,07,08,5.90
2010,05,08,07,09,6.00
2010,05,08,07,10,6.10
2010,05,08,07,11,6.10
2010,05,08,07,12,6.20
2010,05,08,07,13,6.20
2010,05,08,07,14,6.30
2010,05,08,07,15,6.30
2010,05,08,07,16,6.40
2010,05,08,07,17,6.50
2010,05,08,07,18,6.50
2010,05,08,07,19,6.60
2010,05,08,07,20,6.60
2010,05,08,07,21,6.70
2010,05,08,07,22,6.70
2010,05,08,07,23,6.80
2010,05,08,07,24,6.80
2010,05,08,07,25,6.90
2010,05,08,07,26,7.00
2010,05,08,07,27,7.00
2010,05,08,07,28,7.10
2010,05,08,07,29,7.20
2010,05,08,07,30,7.30
2010,05,08,07,31,7.50
2010,05,08,07,32,7.60
2010,05,08,07,33,7.80
2010,05,08,07,34,7.90
2010,05,08,07,35,8.10
2010,05,08,07,36,8.30
2010,05,08,07,37,8.40
2010,05,08,07,38,8.60
2010,05,08,07,39,8.70
2010,05,08,07,40,8.80
2010,05,08,07,41,8.90
2010,05,08,07,42,9.00
2010,05,08,07,43,9.10
2010,05,08,07,44,9.10
2010,05,08,07,45,9.20
2010,05,08,07,46,9.30
2010,05,08,07,47,9.40
2010,05,08,07,48,9.40
2010,05,08,07,49,9.50
2010,05,08,07,50,9.60
2010,05,08,07,51,9.70
2010,05,08,07,52,9.70
2010,05,08,07,53,9.80
2010,05,08,07,54,9.90
2010,05,08,07,55,9.90
2010,05,08,07,56,10.00
2010,05,08,07,57,10.10
2010,05,08,07,58,10.10
2010,05,08,07,59,10.20
2010,05,08,08,00,10.30
2010,05,08,08,01,10.40
2010,05,08,08,02,10.40
2010,05,08,08,03,10.50
2010,05,08,08,04,10.60
2010,05,08,08,05,10.60
2010,05,08,08,06,10.60
2010,05,08,08,07,10.60
2010,05,08,08,08,10.60
2010,05,08,08,09,10.60
2010,05,08,08,10,10.60
2010,05,08,08,11,10.60
2010,05,08,08,12,10.60
2010,05,08,08,13,10.60
2010,05,08,08,14,10.60
2010,05,08,08,15,10.70
2010,05,08,08,16,10.70
2010,05,08,08,17,10.80
2010,05,08,08,18,10.80
2010,05,08,08,19,10.80
2010,05,08,08,20,10.80
2010,05,08,08,21,10.90
2010,05,08,08,22,10.90
2010,05,08,08,23,10.90
2010,05,08,08,24,10.90
2010,05,08,08,25,10.80
2010,05,08,08,26,10.80
2010,05,08,08,27,10.80
2010,05,08,08,28,10.80
2010,05,08,08,29,10.80
2010,05,08,08,30,10.80
2010,05,08,08,31,10.80
2010,05,08,08,32,10.80
2010,05,08,08,33,10.80
2010,05,08,08,34,10.80
2010,05,08,08,35,10.90
2010,05,08,08,36,10.90
2010,05,08,08,37,10.90
2010,05,08,08,38,11.00
2010,05,08,08,39,11.00
2010,05,08,08,40,11.10
2010,05,08,08,41,11.10
2010,05,08,08,42,11.20
2010,05,08,08,43,11.20
2010,05,08,08,44,11.30
2010,05,08,08,45,11.30
2010,05,08,08,46,11.40
2010,05,08,08,47,11.50
2010,05,08,08,48,11.50
2010,05,08,08,49,11.60
2010,05,08,08,50,11.70
2010,05,08,08,51,11.70
2010,05,08,08,52,11.70
2010,05,08,08,53,11.80
2010,05,08,08,54,11.80
2010,05,08,08,55,11.80
2010,05,08,08,56,11.90
2010,05,08,08,57,11.90
2010,05,08,08,58,11.90
2010,05,08,08,59,11.90
2010,05,08,09,00,11.90
2010,05,08,09,01,12.00
2010,05,08,09,02,12.00
2010,05,08,09,03,12.10
2010,05,08,09,04,12.10
2010,05,08,09,05,12.20
2010,05,08,09,06,12.30
2010,05,08,09,07,12.30
2010,05,08,09,08,12.30
2010,05,08,09,09,12.30
2010,05,08,09,10,12.30
2010,05,08,09,11,12.20
2010,05,08,09,12,12.20
2010,05,08,09,13,12.30
2010,05,08,09,14,12.30
2010,05,08,09,15,12.30
2010,05,08,09,16,12.30
2010,05,08,09,17,12.30
2010,05,08,09,18,12.30
2010,05,08,09,19,12.20
2010,05,08,09,20,12.30
2010,05,08,09,21,12.30
2010,05,08,09,22,12.30
2010,05,08,09,23,12.30
2010,05,08,09,24,12.30
2010,05,08,09,25,12.40
2010,05,08,09,26,12.40
2010,05,08,09,27,12.40
2010,05,08,09,28,12.50
2010,05,08,09,29,12.50
2010,05,08,09,30,12.60
2010,05,08,09,31,12.60
2010,05,08,09,32,12.70
2010,05,08,09,33,12.70
2010,05,08,09,34,12.60
2010,05,08,09,35,12.60
2010,05,08,09,36,12.60
2010,05,08,09,37,12.60
2010,05,08,09,38,12.60
2010,05,08,09,39,12.60
2010,05,08,09,40,12.50
2010,05,08,09,41,12.50
2010,05,08,09,42,12.50
2010,05,08,09,43,12.50
2010,05,08,09,44,12.60
2010,05,08,09,45,12.60
2010,05,08,09,46,12.60
2010,05,08,09,47,12.70
2010,05,08,09,48,12.70
2010,05,08,09,49,12.70
2010,05,08,09,50,12.70
2010,05,08,09,51,12.80
2010,05,08,09,52,12.80
2010,05,08,09,53,12.90
2010,05,08,09,54,13.00
2010,05,08,09,55,13.00
2010,05,08,09,56,13.00
2010,05,08,09,57,12.90
2010,05,08,09,58,12.90
2010,05,08,09,59,12.80
2010,05,08,10,00,12.80
2010,05,08,10,01,12.80
2010,05,08,10,02,12.80
2010,05,08,10,03,12.80
2010,05,08,10,04,12.80
2010,05,08,10,05,12.80
2010,05,08,10,06,12.80
2010,05,08,10,07,12.80
2010,05,08,10,08,12.80
2010,05,08,10,09,12.80
2010,05,08,10,10,12.70
2010,05,08,10,11,12.70
2010,05,08,10,12,12.70
2010,05,08,10,13,12.70
2010,05,08,10,14,12.80
2010,05,08,10,15,12.90
2010,05,08,10,16,12.90
2010,05,08,10,17,13.00
2010,05,08,10,18,13.10
2010,05,08,10,19,13.10
2010,05,08,10,20,13.20
2010,05,08,10,21,13.20
2010,05,08,10,22,13.20
2010,05,08,10,23,13.30
2010,05,08,10,24,13.30
2010,05,08,10,25,13.30
2010,05,08,10,26,13.30
2010,05,08,10,27,13.40
2010,05,08,10,28,13.40
2010,05,08,10,29,13.50
2010,05,08,10,30,13.50
2010,05,08,10,31,13.60
2010,05,08,10,32,13.60
2010,05,08,10,33,13.50
2010,05,08,10,34,13.50
2010,05,08,10,35,13.40
2010,05,08,10,36,13.40
2010,05,08,10,37,13.40
2010,05,08,10,38,13.40
2010,05,08,10,39,13.40
2010,05,08,10,40,13.50
2010,05,08,10,41,13.50
2010,05,08,10,42,13.60
2010,05,08,10,43,13.60
2010,05,08,10,44,13.70
2010,05,08,10,45,13.60
2010,05,08,10,46,13.60
2010,05,08,10,47,13.50
2010,05,08,10,48,13.40
2010,05,08,10,49,13.40
2010,05,08,10,50,13.40
2010,05,08,10,51,13.40
2010,05,08,10,52,13.50
2010,05,08,10,53,13.50
2010,05,08,10,54,13.60
2010,05,08,10,55,13.60
2010,05,08,10,56,13.60
2010,05,08,10,57,13.60
2010,05,08,10,58,13.70
2010,05,08,10,59,13.70
2010,05,08,11,00,13.80
2010,05,08,11,01,13.80
2010,05,08,11,02,13.80
2010,05,08,11,03,13.80
2010,05,08,11,04,13.80
2010,05,08,11,05,13.80
2010,05,08,11,06,13.70
2010,05,08,11,07,13.80
2010,05,08,11,08,13.80
2010,05,08,11,09,13.80
2010,05,08,11,10,13.80
2010,05,08,11,11,13.70
2010,05,08,11,12,13.80
2010,05,08,11,13,13.80
2010,05,08,11,14,13.90
2010,05,08,11,15,13.90
2010,05,08,11,16,14.00
2010,05,08,11,17,14.00
2010,05,08,11,18,14.10
2010,05,08,11,19,14.10
2010,05,08,11,20,14.10
2010,05,08,11,21,14.10
2010,05,08,11,22,14.10
2010,05,08,11,23,14.20
2010,05,08,11,24,14.20
2010,05,08,11,25,14.30
2010,05,08,11,26,14.30
2010,05,08,11,27,14.40
2010,05,08,11,28,14.40
2010,05,08,11,29,14.40
2010,05,08,11,30,14.40
2010,05,08,11,31,14.40
2010,05,08,11,32,14.40
2010,05,08,11,33,14.50
2010,05,08,11,34,14.50
2010,05,08,11,35,14.60
2010,05,08,11,36,14.60
2010,05,08,11,37,14.60
2010,05,08,11,38,14.60
2010,05,08,11,39,14.60
2010,05,08,11,40,14.60
2010,05,08,11,41,14.50
2010,05,08,11,42,14.50
2010,05,08,11,43,14.50
2010,05,08,11,44,14.40
2010,05,08,11,45,14.50
2010,05,08,11,46,14.60
2010,05,08,11,47,14.70
2010,05,08,11,48,14.70
2010,05,08,11,49,14.80
2010,05,08,11,50,14.80
2010,05,08,11,51,14.80
2010,05,08,11,52,14.70
2010,05,08,11,53,14.70
2010,05,08,11,54,14.70
2010,05,08,11,55,14.70
2010,05,08,11,56,14.70
2010,05,08,11,57,14.80
2010,05,08,11,58,14.80
2010,05,08,11,59,14.80
2010,05,08,12,00,14.90
2010,05,08,12,01,14.90
2010,05,08,12,02,15.00
2010,05,08,12,03,15.00
2010,05,08,12,04,15.00
2010,05,08,12,05,15.00
2010,05,08,12,06,15.10
2010,05,08,12,07,15.10
2010,05,08,12,08,15.10
2010,05,08,12,09,15.10
2010,05,08,12,10,15.10
2010,05,08,12,11,15.10
2010,05,08,12,12,15.20
2010,05,08,12,13,15.20
2010,05,08,12,14,15.20
2010,05,08,12,15,15.20
2010,05,08,12,16,15.10
2010,05,08,12,17,15.20
2010,05,08,12,18,15.20
2010,05,08,12,19,15.30
2010,05,08,12,20,15.40
2010,05,08,12,21,15.40
2010,05,08,12,22,15.50
2010,05,08,12,23,15.50
2010,05,08,12,24,15.50
2010,05,08,12,25,15.40
2010,05,08,12,26,15.40
2010,05,08,12,27,15.30
2010,05,08,12,28,15.20
2010,05,08,12,29,15.10
2010,05,08,12,30,15.00
2010,05,08,12,31,15.00
2010,05,08,12,32,15.00
2010,05,08,12,33,14.90
2010,05,08,12,34,14.80
2010,05,08,12,35,14.80
2010,05,08,12,36,14.70
2010,05,08,12,37,14.70
2010,05,08,12,38,14.70
2010,05,08,12,39,14.70
2010,05,08,12,40,14.70
2010,05,08,12,41,14.70
2010,05,08,12,42,14.80
2010,05,08,12,43,14.90
2010,05,08,12,44,14.90
2010,05,08,12,45,15.00
2010,05,08,12,46,15.00
2010,05,08,12,47,15.00
2010,05,08,12,48,15.10
2010,05,08,12,49,15.20
2010,05,08,12,50,15.30
2010,05,08,12,51,15.40
2010,05,08,12,52,15.40
2010,05,08,12,53,15.40
2010,05,08,12,54,15.40
2010,05,08,12,55,15.40
2010,05,08,12,56,15.40
2010,05,08,12,57,15.40
2010,05,08,12,58,15.40
2010,05,08,12,59,15.40
2010,05,08,13,00,15.30
2010,05,08,13,01,15.30
2010,05,08,13,02,15.30
2010,05,08,13,03,15.30
2010,05,08,13,04,15.30
2010,05,08,13,05,15.40
2010,05,08,13,06,15.40
2010,05,08,13,07,15.40
2010,05,08,13,08,15.40
2010,05,08,13,09,15.40
2010,05,08,13,10,15.40
2010,05,08,13,11,15.40
2010,05,08,13,12,15.50
2010,05,08,13,13,15.60
2010,05,08,13,14,15.60
2010,05,08,13,15,15.60
2010,05,08,13,16,15.60
2010,05,08,13,17,15.60
2010,05,08,13,18,15.60
2010,05,08,13,19,15.60
2010,05,08,13,20,15.60
2010,05,08,13,21,15.60
2010,05,08,13,22,15.60
2010,05,08,13,23,15.60
2010,05,08,13,24,15.60
2010,05,08,13,25,15.60
2010,05,08,13,26,15.70
2010,05,08,13,27,15.80
2010,05,08,13,28,15.80
2010,05,08,13,29,15.90
2010,05,08,13,30,15.90
2010,05,08,13,31,15.90
2010,05,08,13,32,16.00
2010,05,08,13,33,16.00
2010,05,08,13,34,16.10
2010,05,08,13,35,16.00
2010,05,08,13,36,15.90
2010,05,08,13,37,15.90
2010,05,08,13,38,15.90
2010,05,08,13,39,16.00
2010,05,08,13,40,16.00
2010,05,08,13,41,16.10
2010,05,08,13,42,16.10
2010,05,08,13,43,16.20
2010,05,08,13,44,16.20
2010,05,08,13,45,16.20
2010,05,08,13,46,16.10
2010,05,08,13,47,16.10
2010,05,08,13,48,16.10
2010,05,08,13,49,16.10
2010,05,08,13,50,16.10
2010,05,08,13,51,16.10
2010,05,08,13,52,16.10
2010,05,08,13,53,16.10
2010,05,08,13,54,16.10
2010,05,08,13,55,16.00
2010,05,08,13,56,16.00
2010,05,08,13,57,16.00
2010,05,08,13,58,16.00
2010,05,08,13,59,16.00
2010,05,08,14,00,16.00
2010,05,08,14,01,16.10
2010,05,08,14,02,16.00
2010,05,08,14,03,16.00
2010,05,08,14,04,16.00
2010,05,08,14,05,16.00
2010,05,08,14,06,16.10
2010,05,08,14,07,16.10
2010,05,08,14,08,16.20
2010,05,08,14,09,16.20
2010,05,08,14,10,16.20
2010,05,08,14,11,16.30
2010,05,08,14,12,16.30
2010,05,08,14,13,16.40
2010,05,08,14,14,16.50
2010,05,08,14,15,16.60
2010,05,08,14,16,16.70
2010,05,08,14,17,16.70
2010,05,08,14,18,16.80
2010,05,08,14,19,16.90
2010,05,08,14,20,16.90
2010,05,08,14,21,16.90
2010,05,08,14,22,16.90
2010,05,08,14,23,16.90
2010,05,08,14,24,16.90
2010,05,08,14,25,17.00
2010,05,08,14,26,17.00
2010,05,08,14,27,17.00
2010,05,08,14,28,17.00
2010,05,08,14,29,17.00
2010,05,08,14,30,17.00
2010,05,08,14,31,16.90
2010,05,08,14,32,16.90
2010,05,08,14,33,16.90
2010,05,08,14,34,16.90
2010,05,08,14,35,16.80
2010,05,08,14,36,16.70
2010,05,08,14,37,16.60
2010,05,08,14,38,16.50
2010,05,08,14,39,16.40
2010,05,08,14,40,16.30
2010,05,08,14,41,16.20
2010,05,08,14,42,16.00
2010,05,08,14,43,15.90
2010,05,08,14,44,15.80
2010,05,08,14,45,15.80
2010,05,08,14,46,15.70
2010,05,08,14,47,15.70
2010,05,08,14,48,15.60
2010,05,08,14,49,15.60
2010,05,08,14,50,15.60
2010,05,08,14,51,15.50
2010,05,08,14,52,15.50
2010,05,08,14,53,15.50
2010,05,08,14,54,15.60
2010,05,08,14,55,15.60
2010,05,08,14,56,15.60
2010,05,08,14,57,15.70
2010,05,08,14,58,15.70
2010,05,08,14,59,15.70
2010,05,08,15,00,15.80
2010,05,08,15,01,15.80
2010,05,08,15,02,15.80
2010,05,08,15,03,15.80
2010,05,08,15,04,15.80
2010,05,08,15,05,15.80
2010,05,08,15,06,15.80
2010,05,08,15,07,15.90
2010,05,08,15,08,15.90
2010,05,08,15,09,15.90
2010,05,08,15,10,15.90
2010,05,08,15,11,15.80
2010,05,08,15,12,15.80
2010,05,08,15,13,15.80
2010,05,08,15,14,15.80
2010,05,08,15,15,15.70
2010,05,08,15,16,15.70
2010,05,08,15,17,15.70
2010,05,08,15,18,15.70
2010,05,08,15,19,15.70
2010,05,08,15,20,15.80
2010,05,08,15,21,15.80
2010,05,08,15,22,15.80
2010,05,08,15,23,15.90
2010,05,08,15,24,15.90
2010,05,08,15,25,16.00
2010,05,08,15,26,16.10
2010,05,08,15,27,16.10
2010,05,08,15,28,16.20
2010,05,08,15,29,16.20
2010,05,08,15,30,16.20
2010,05,08,15,31,16.20
2010,05,08,15,32,16.20
2010,05,08,15,33,16.20
2010,05,08,15,34,16.20
2010,05,08,15,35,16.30
2010,05,08,15,36,16.30
2010,05,08,15,37,16.40
2010,05,08,15,38,16.40
2010,05,08,15,39,16.50
2010,05,08,15,40,16.50
2010,05,08,15,41,16.40
2010,05,08,15,42,16.40
2010,05,08,15,43,16.30
2010,05,08,15,44,16.30
2010,05,08,15,45,16.30
2010,05,08,15,46,16.30
2010,05,08,15,47,16.40
2010,05,08,15,48,16.40
2010,05,08,15,49,16.50
2010,05,08,15,50,16.60
2010,05,08,15,51,16.60
2010,05,08,15,52,16.70
2010,05,08,15,53,16.70
2010,05,08,15,54,16.70
2010,05,08,15,55,16.70
2010,05,08,15,56,16.80
2010,05,08,15,57,16.70
2010,05,08,15,58,16.70
2010,05,08,15,59,16.70
2010,05,08,16,00,16.80
2010,05,08,16,01,16.80
2010,05,08,16,02,16.80
2010,05,08,16,03,16.80
2010,05,08,16,04,16.90
2010,05,08,16,05,17.00
2010,05,08,16,06,17.10
2010,05,08,16,07,17.10
2010,05,08,16,08,17.20
2010,05,08,16,09,17.20
2010,05,08,16,10,17.20
2010,05,08,16,11,17.20
2010,05,08,16,12,17.20
2010,05,08,16,13,17.30
2010,05,08,16,14,17.30
2010,05,08,16,15,17.30
2010,05,08,16,16,17.30
2010,05,08,16,17,17.30
2010,05,08,16,18,17.40
2010,05,08,16,19,17.40
2010,05,08,16,20,17.40
2010,05,08,16,21,17.50
2010,05,08,16,22,17.60
2010,05,08,16,23,17.60
2010,05,08,16,24,17.70
2010,05,08,16,25,17.70
2010,05,08,16,26,17.70
2010,05,08,16,27,17.70
2010,05,08,16,28,17.70
2010,05,08,16,29,17.70
2010,05,08,16,30,17.70
2010,05,08,16,31,17.70
2010,05,08,16,32,17.70
2010,05,08,16,33,17.60
2010,05,08,16,34,17.50
2010,05,08,16,35,17.40
2010,05,08,16,36,17.30
2010,05,08,16,37,17.30
2010,05,08,16,38,17.30
2010,05,08,16,39,17.30
2010,05,08,16,40,17.20
2010,05,08,16,41,17.00
2010,05,08,16,42,16.90
2010,05,08,16,43,16.80
2010,05,08,16,44,16.80
2010,05,08,16,45,16.70
2010,05,08,16,46,16.70
2010,05,08,16,47,16.70
2010,05,08,16,48,16.70
2010,05,08,16,49,16.70
2010,05,08,16,50,16.70
2010,05,08,16,51,16.70
2010,05,08,16,52,16.80
2010,05,08,16,53,16.80
2010,05,08,16,54,16.80
2010,05,08,16,55,16.80
2010,05,08,16,56,16.80
2010,05,08,16,57,16.80
2010,05,08,16,58,16.90
2010,05,08,16,59,16.90
2010,05,08,17,00,17.00
2010,05,08,17,01,17.00
2010,05,08,17,02,17.00
2010,05,08,17,03,17.00
2010,05,08,17,04,17.00
2010,05,08,17,05,17.00
2010,05,08,17,06,16.90
2010,05,08,17,07,16.90
2010,05,08,17,08,16.80
2010,05,08,17,09,16.80
2010,05,08,17,10,16.70
2010,05,08,17,11,16.70
2010,05,08,17,12,16.60
2010,05,08,17,13,16.60
2010,05,08,17,14,16.60
2010,05,08,17,15,16.50
2010,05,08,17,16,16.50
2010,05,08,17,17,16.40
2010,05,08,17,18,16.40
2010,05,08,17,19,16.40
2010,05,08,17,20,16.30
2010,05,08,17,21,16.30
2010,05,08,17,22,16.30
2010,05,08,17,23,16.20
2010,05,08,17,24,16.20
2010,05,08,17,25,16.20
2010,05,08,17,26,16.20
2010,05,08,17,27,16.20
2010,05,08,17,28,16.20
2010,05,08,17,29,16.20
2010,05,08,17,30,16.30
2010,05,08,17,31,16.30
2010,05,08,17,32,16.40
2010,05,08,17,33,16.40
2010,05,08,17,34,16.50
2010,05,08,17,35,16.60
2010,05,08,17,36,16.70
2010,05,08,17,37,16.80
2010,05,08,17,38,16.80
2010,05,08,17,39,16.80
2010,05,08,17,40,16.80